Year,Month,Day,Hour,Minute,Value (Times are PST for temperature in C)
2016,01,13,00,26,8.70
2016,01,13,00,27,8.70
2016,01,13,00,28,8.70
2016,01,13,00,29,8.70
2016,01,13,00,30,8.70
2016,01,13,00,31,8.80
2016,01,13,00,32,8.80
2016,01,13,00,33,8.80
2016,01,13,00,34,8.80
2016,01,13,00,35,8.80
2016,01,13,00,36,8.80
2016,01,13,00,37,8.80
2016,01,13,00,38,8.90
2016,01,13,00,39,8.90
2016,01,13,00,40,8.90
2016,01,13,00,41,8.90
2016,01,13,00,42,8.90
2016,01,13,00,43,8.90
2016,01,13,00,44,8.90
2016,01,13,00,45,8.80
2016,01,13,00,46,8.80
2016,01,13,00,47,8.80
2016,01,13,00,48,8.80
2016,01,13,00,49,8.90
2016,01,13,00,50,8.90
2016,01,13,00,51,8.90
2016,01,13,00,52,8.90
2016,01,13,00,53,8.90
2016,01,13,00,54,8.90
2016,01,13,00,55,8.90
2016,01,13,00,56,8.90
2016,01,13,01,26,8.80
2016,01,13,01,27,8.80
2016,01,13,01,28,8.80
2016,01,13,01,29,8.80
2016,01,13,01,30,8.80
2016,01,13,01,31,8.80
2016,01,13,01,32,8.80
2016,01,13,01,33,8.80
2016,01,13,01,34,8.80
2016,01,13,01,35,8.80
2016,01,13,01,36,8.80
2016,01,13,01,38,8.90
2016,01,13,01,39,8.90
2016,01,13,01,41,8.90
2016,01,13,01,42,8.90
2016,01,13,01,43,8.90
2016,01,13,01,44,8.80
2016,01,13,01,46,8.80
2016,01,13,01,47,8.80
2016,01,13,01,48,8.80
2016,01,13,01,49,8.80
2016,01,13,01,51,8.80
2016,01,13,01,52,8.80
2016,01,13,01,53,8.80
2016,01,13,01,54,8.80
2016,01,13,01,56,8.80
2016,01,13,01,57,8.90
2016,01,13,01,58,8.90
2016,01,13,01,59,8.90
2016,01,13,02,01,8.90
2016,01,13,02,02,8.90
2016,01,13,02,03,8.90
2016,01,13,02,04,8.90
2016,01,13,02,06,8.90
2016,01,13,02,07,8.90
2016,01,13,02,08,8.90
2016,01,13,02,09,8.90
2016,01,13,02,10,8.90
2016,01,13,02,11,8.90
2016,01,13,02,12,8.90
2016,01,13,02,13,8.90
2016,01,13,02,14,8.90
2016,01,13,02,15,8.90
2016,01,13,02,16,8.90
2016,01,13,02,17,8.90
2016,01,13,02,18,8.90
2016,01,13,02,19,8.90
2016,01,13,02,20,8.90
2016,01,13,02,21,8.90
2016,01,13,02,22,8.90
2016,01,13,02,23,8.90
2016,01,13,02,24,8.90
2016,01,13,02,25,8.90
2016,01,13,02,26,8.90
2016,01,13,02,28,8.90
2016,01,13,02,29,8.90
2016,01,13,02,31,8.80
2016,01,13,02,32,8.80
2016,01,13,02,33,8.80
2016,01,13,02,34,8.80
2016,01,13,02,36,8.80
2016,01,13,02,37,8.70
2016,01,13,02,38,8.70
2016,01,13,02,39,8.70
2016,01,13,02,41,8.70
2016,01,13,02,42,8.70
2016,01,13,02,43,8.70
2016,01,13,02,44,8.70
2016,01,13,02,45,8.70
2016,01,13,02,46,8.70
2016,01,13,02,47,8.70
2016,01,13,02,48,8.70
2016,01,13,02,49,8.70
2016,01,13,02,50,8.70
2016,01,13,02,51,8.70
2016,01,13,02,52,8.70
2016,01,13,02,54,8.70
2016,01,13,02,56,8.60
2016,01,13,02,57,8.60
2016,01,13,02,58,8.60
2016,01,13,02,59,8.60
2016,01,13,03,01,8.60
2016,01,13,03,02,8.60
2016,01,13,03,03,8.60
2016,01,13,03,04,8.60
2016,01,13,03,06,8.50
2016,01,13,03,07,8.50
2016,01,13,03,08,8.50
2016,01,13,03,09,8.40
2016,01,13,03,11,8.40
2016,01,13,03,12,8.40
2016,01,13,03,13,8.30
2016,01,13,03,14,8.30
2016,01,13,03,16,8.30
2016,01,13,03,17,8.30
2016,01,13,03,18,8.30
2016,01,13,03,19,8.30
2016,01,13,03,21,8.30
2016,01,13,03,22,8.30
2016,01,13,03,23,8.30
2016,01,13,03,24,8.30
2016,01,13,03,25,8.30
2016,01,13,03,26,8.30
2016,01,13,03,27,8.20
2016,01,13,03,28,8.20
2016,01,13,03,29,8.20
2016,01,13,03,30,8.20
2016,01,13,03,31,8.20
2016,01,13,03,32,8.20
2016,01,13,03,33,8.20
2016,01,13,03,34,8.20
2016,01,13,03,35,8.20
2016,01,13,03,36,8.20
2016,01,13,03,37,8.20
2016,01,13,03,38,8.20
2016,01,13,03,39,8.20
2016,01,13,03,40,8.20
2016,01,13,03,41,8.20
2016,01,13,03,42,8.20
2016,01,13,03,43,8.20
2016,01,13,03,44,8.20
2016,01,13,03,45,8.20
2016,01,13,03,47,8.20
2016,01,13,03,48,8.20
2016,01,13,03,49,8.20
2016,01,13,03,51,8.20
2016,01,13,03,52,8.20
2016,01,13,03,53,8.20
2016,01,13,03,54,8.20
2016,01,13,03,56,8.10
2016,01,13,03,57,8.10
2016,01,13,03,58,8.10
2016,01,13,03,59,8.10
2016,01,13,04,01,8.10
2016,01,13,04,02,8.10
2016,01,13,04,03,8.10
2016,01,13,04,04,8.10
2016,01,13,04,06,8.10
2016,01,13,04,07,8.10
2016,01,13,04,08,8.10
2016,01,13,04,09,8.10
2016,01,13,04,26,8.00
2016,01,13,04,27,8.00
2016,01,13,04,28,8.00
2016,01,13,04,29,8.00
2016,01,13,04,30,8.00
2016,01,13,04,31,8.00
2016,01,13,04,32,8.00
2016,01,13,04,33,8.00
2016,01,13,04,34,8.00
2016,01,13,04,35,8.00
2016,01,13,05,26,8.00
2016,01,13,05,27,8.00
2016,01,13,05,28,8.00
2016,01,13,05,29,8.00
2016,01,13,05,30,8.00
2016,01,13,05,31,8.00
2016,01,13,05,32,8.00
2016,01,13,05,33,8.00
2016,01,13,05,34,8.00
2016,01,13,05,35,8.00
2016,01,13,05,36,8.00
2016,01,13,05,37,8.00
2016,01,13,05,38,8.00
2016,01,13,05,39,7.90
2016,01,13,05,40,7.90
2016,01,13,05,41,7.90
2016,01,13,05,42,7.90
2016,01,13,05,43,7.90
2016,01,13,05,44,7.90
2016,01,13,05,45,7.90
2016,01,13,05,46,7.90
2016,01,13,05,47,7.90
2016,01,13,05,48,7.90
2016,01,13,05,49,7.90
2016,01,13,05,50,7.90
2016,01,13,05,51,7.90
2016,01,13,05,52,8.00
2016,01,13,05,53,8.00
2016,01,13,05,54,8.00
2016,01,13,05,55,8.00
2016,01,13,05,56,8.00
2016,01,13,05,57,8.00
2016,01,13,05,58,8.00
2016,01,13,05,59,8.00
2016,01,13,06,00,7.90
2016,01,13,06,01,7.90
2016,01,13,06,02,7.90
2016,01,13,06,03,7.90
2016,01,13,06,04,7.90
2016,01,13,06,05,7.90
2016,01,13,06,06,7.90
2016,01,13,06,08,7.90
2016,01,13,06,09,7.80
2016,01,13,06,11,7.80
2016,01,13,06,12,7.80
2016,01,13,06,13,7.80
2016,01,13,06,14,7.80
2016,01,13,06,16,7.80
2016,01,13,06,17,7.80
2016,01,13,06,18,7.80
2016,01,13,06,19,7.80
2016,01,13,06,21,7.80
2016,01,13,06,22,7.80
2016,01,13,06,23,7.80
2016,01,13,06,24,7.80
2016,01,13,06,26,7.80
2016,01,13,06,27,7.80
2016,01,13,06,28,7.70
2016,01,13,06,29,7.70
2016,01,13,06,31,7.70
2016,01,13,06,32,7.70
2016,01,13,06,33,7.70
2016,01,13,06,34,7.70
2016,01,13,06,36,7.70
2016,01,13,06,37,7.70
2016,01,13,06,38,7.60
2016,01,13,06,39,7.60
2016,01,13,06,41,7.60
2016,01,13,06,42,7.60
2016,01,13,06,43,7.60
2016,01,13,06,44,7.60
2016,01,13,06,46,7.50
2016,01,13,06,47,7.50
2016,01,13,06,48,7.50
2016,01,13,06,49,7.50
2016,01,13,06,51,7.50
2016,01,13,06,52,7.50
2016,01,13,06,53,7.50
2016,01,13,06,54,7.50
2016,01,13,06,55,7.50
2016,01,13,06,56,7.50
2016,01,13,06,57,7.50
2016,01,13,06,58,7.50
2016,01,13,06,59,7.50
2016,01,13,07,00,7.50
2016,01,13,07,01,7.50
2016,01,13,07,02,7.50
2016,01,13,07,03,7.50
2016,01,13,07,04,7.50
2016,01,13,07,05,7.50
2016,01,13,07,06,7.50
2016,01,13,07,07,7.50
2016,01,13,07,08,7.50
2016,01,13,07,09,7.60
2016,01,13,07,10,7.60
2016,01,13,07,11,7.60
2016,01,13,07,12,7.60
2016,01,13,07,13,7.60
2016,01,13,07,14,7.60
2016,01,13,07,15,7.60
2016,01,13,07,16,7.60
2016,01,13,07,17,7.60
2016,01,13,07,18,7.60
2016,01,13,07,19,7.60
2016,01,13,07,20,7.60
2016,01,13,07,21,7.60
2016,01,13,07,22,7.60
2016,01,13,07,23,7.60
2016,01,13,07,24,7.60
2016,01,13,07,25,7.60
2016,01,13,07,26,7.60
2016,01,13,07,27,7.60
2016,01,13,07,28,7.60
2016,01,13,07,29,7.60
2016,01,13,07,30,7.60
2016,01,13,07,31,7.60
2016,01,13,07,32,7.60
2016,01,13,07,33,7.60
2016,01,13,07,34,7.60
2016,01,13,07,35,7.60
2016,01,13,07,36,7.60
2016,01,13,07,37,7.60
2016,01,13,07,38,7.60
2016,01,13,07,39,7.60
2016,01,13,07,40,7.60
2016,01,13,07,41,7.60
2016,01,13,07,42,7.60
2016,01,13,07,43,7.60
2016,01,13,07,44,7.60
2016,01,13,07,45,7.60
2016,01,13,07,46,7.60
2016,01,13,07,47,7.60
2016,01,13,07,48,7.60
2016,01,13,07,49,7.60
2016,01,13,07,50,7.60
2016,01,13,07,51,7.60
2016,01,13,07,52,7.60
2016,01,13,07,53,7.60
2016,01,13,07,54,7.60
2016,01,13,07,55,7.50
2016,01,13,07,56,7.50
2016,01,13,07,57,7.50
2016,01,13,07,58,7.50
2016,01,13,07,59,7.50
2016,01,13,08,01,7.50
2016,01,13,08,02,7.50
2016,01,13,08,03,7.50
2016,01,13,08,04,7.50
2016,01,13,08,06,7.50
2016,01,13,08,07,7.40
2016,01,13,08,08,7.40
2016,01,13,08,09,7.40
2016,01,13,08,11,7.40
2016,01,13,08,12,7.40
2016,01,13,08,13,7.40
2016,01,13,08,14,7.40
2016,01,13,08,16,7.30
2016,01,13,08,17,7.30
2016,01,13,08,18,7.30
2016,01,13,08,19,7.30
2016,01,13,08,21,7.30
2016,01,13,08,22,7.30
2016,01,13,08,23,7.30
2016,01,13,08,24,7.30
2016,01,13,08,26,7.30
2016,01,13,08,27,7.30
2016,01,13,08,28,7.30
2016,01,13,08,29,7.30
2016,01,13,08,31,7.30
2016,01,13,08,32,7.30
2016,01,13,08,33,7.30
2016,01,13,08,34,7.30
2016,01,13,08,36,7.30
2016,01,13,08,37,7.30
2016,01,13,08,38,7.30
2016,01,13,08,39,7.40
2016,01,13,08,41,7.40
2016,01,13,08,42,7.40
2016,01,13,08,43,7.40
2016,01,13,08,44,7.40
2016,01,13,08,45,7.40
2016,01,13,08,46,7.40
2016,01,13,08,47,7.40
2016,01,13,08,48,7.40
2016,01,13,08,49,7.40
2016,01,13,08,50,7.30
2016,01,13,08,51,7.30
2016,01,13,08,52,7.30
2016,01,13,08,53,7.30
2016,01,13,08,54,7.30
2016,01,13,08,55,7.30
2016,01,13,08,56,7.30
2016,01,13,08,57,7.30
2016,01,13,08,58,7.30
2016,01,13,08,59,7.30
2016,01,13,09,00,7.30
2016,01,13,09,01,7.30
2016,01,13,09,02,7.30
2016,01,13,09,03,7.30
2016,01,13,09,04,7.30
2016,01,13,09,05,7.30
2016,01,13,09,06,7.30
2016,01,13,09,07,7.30
2016,01,13,09,08,7.30
2016,01,13,09,09,7.30
2016,01,13,09,10,7.30
2016,01,13,09,11,7.30
2016,01,13,09,12,7.30
2016,01,13,09,13,7.30
2016,01,13,09,14,7.30
2016,01,13,09,15,7.30
2016,01,13,09,16,7.30
2016,01,13,09,17,7.30
2016,01,13,09,18,7.30
2016,01,13,09,19,7.30
2016,01,13,09,20,7.30
2016,01,13,09,21,7.30
2016,01,13,09,22,7.30
2016,01,13,09,23,7.30
2016,01,13,09,24,7.30
2016,01,13,09,25,7.30
2016,01,13,09,26,7.30
2016,01,13,09,27,7.30
2016,01,13,09,28,7.30
2016,01,13,09,29,7.30
2016,01,13,09,30,7.30
2016,01,13,09,31,7.30
2016,01,13,09,32,7.30
2016,01,13,09,33,7.30
2016,01,13,09,34,7.30
2016,01,13,09,35,7.30
2016,01,13,09,36,7.30
2016,01,13,09,38,7.30
2016,01,13,09,39,7.30
2016,01,13,09,41,7.30
2016,01,13,09,42,7.40
2016,01,13,09,43,7.40
2016,01,13,09,44,7.40
2016,01,13,09,46,7.40
2016,01,13,09,47,7.40
2016,01,13,09,48,7.40
2016,01,13,09,49,7.40
2016,01,13,09,51,7.30
2016,01,13,09,52,7.30
2016,01,13,09,53,7.30
2016,01,13,09,54,7.30
2016,01,13,09,56,7.30
2016,01,13,09,57,7.30
2016,01,13,09,58,7.30
2016,01,13,09,59,7.20
2016,01,13,10,01,7.20
2016,01,13,10,02,7.20
2016,01,13,10,03,7.20
2016,01,13,10,04,7.20
2016,01,13,10,06,7.20
2016,01,13,10,07,7.20
2016,01,13,10,08,7.20
2016,01,13,10,09,7.20
2016,01,13,10,11,7.20
2016,01,13,10,12,7.20
2016,01,13,10,13,7.20
2016,01,13,10,14,7.20
2016,01,13,10,16,7.20
2016,01,13,10,17,7.20
2016,01,13,10,18,7.20
2016,01,13,10,19,7.30
2016,01,13,10,21,7.30
2016,01,13,10,22,7.30
2016,01,13,10,23,7.30
2016,01,13,10,24,7.30
2016,01,13,10,26,7.30
2016,01,13,10,27,7.30
2016,01,13,10,28,7.40
2016,01,13,10,29,7.40
2016,01,13,10,31,7.40
2016,01,13,10,32,7.40
2016,01,13,10,33,7.50
2016,01,13,10,34,7.50
2016,01,13,10,35,7.50
2016,01,13,10,36,7.60
2016,01,13,10,37,7.60
2016,01,13,10,38,7.60
2016,01,13,10,39,7.60
2016,01,13,10,40,7.70
2016,01,13,10,41,7.70
2016,01,13,10,42,7.70
2016,01,13,10,43,7.70
2016,01,13,10,44,7.70
2016,01,13,10,45,7.80
2016,01,13,10,46,7.80
2016,01,13,10,47,7.80
2016,01,13,10,48,7.80
2016,01,13,10,49,7.80
2016,01,13,10,50,7.80
2016,01,13,10,51,7.80
2016,01,13,10,52,7.80
2016,01,13,10,53,7.80
2016,01,13,10,54,7.80
2016,01,13,10,55,7.80
2016,01,13,10,56,7.90
2016,01,13,10,57,7.90
2016,01,13,10,58,7.90
2016,01,13,10,59,7.90
2016,01,13,11,00,7.90
2016,01,13,11,01,8.00
2016,01,13,11,02,8.00
2016,01,13,11,03,8.00
2016,01,13,11,04,8.00
2016,01,13,11,05,8.00
2016,01,13,11,06,8.10
2016,01,13,11,07,8.10
2016,01,13,11,08,8.10
2016,01,13,11,09,8.10
2016,01,13,11,10,8.10
2016,01,13,11,11,8.20
2016,01,13,11,12,8.20
2016,01,13,11,13,8.20
2016,01,13,11,14,8.20
2016,01,13,11,15,8.20
2016,01,13,11,16,8.20
2016,01,13,11,17,8.20
2016,01,13,11,18,8.20
2016,01,13,11,19,8.20
2016,01,13,11,20,8.30
2016,01,13,11,21,8.30
2016,01,13,11,22,8.30
2016,01,13,11,23,8.30
2016,01,13,11,24,8.30
2016,01,13,11,25,8.30
2016,01,13,11,26,8.40
2016,01,13,11,27,8.40
2016,01,13,11,28,8.40
2016,01,13,11,29,8.40
2016,01,13,11,30,8.40
2016,01,13,11,31,8.50
2016,01,13,11,32,8.50
2016,01,13,11,33,8.50
2016,01,13,11,34,8.50
2016,01,13,11,35,8.50
2016,01,13,11,36,8.50
2016,01,13,11,37,8.50
2016,01,13,11,38,8.60
2016,01,13,11,39,8.60
2016,01,13,11,40,8.60
2016,01,13,11,41,8.60
2016,01,13,11,42,8.60
2016,01,13,11,43,8.60
2016,01,13,11,44,8.60
2016,01,13,11,45,8.60
2016,01,13,11,47,8.70
2016,01,13,11,48,8.70
2016,01,13,11,49,8.70
2016,01,13,11,51,8.70
2016,01,13,11,52,8.70
2016,01,13,11,53,8.70
2016,01,13,11,54,8.70
2016,01,13,11,56,8.70
2016,01,13,11,57,8.70
2016,01,13,11,58,8.70
2016,01,13,11,59,8.70
2016,01,13,12,01,8.70
2016,01,13,12,02,8.70
2016,01,13,12,03,8.70
2016,01,13,12,04,8.70
2016,01,13,12,06,8.70
2016,01,13,12,07,8.70
2016,01,13,12,08,8.70
2016,01,13,12,09,8.70
2016,01,13,12,11,8.80
2016,01,13,12,12,8.80
2016,01,13,12,13,8.80
2016,01,13,12,14,8.80
2016,01,13,12,16,8.80
2016,01,13,12,17,8.80
2016,01,13,12,18,8.80
2016,01,13,12,19,8.80
2016,01,13,12,21,8.80
2016,01,13,12,22,8.80
2016,01,13,12,23,8.80
2016,01,13,12,24,8.80
2016,01,13,12,26,8.80
2016,01,13,12,27,8.80
2016,01,13,12,28,8.90
2016,01,13,12,29,8.90
2016,01,13,12,31,8.90
2016,01,13,12,32,8.90
2016,01,13,12,33,8.90
2016,01,13,12,34,8.90
2016,01,13,12,36,8.90
2016,01,13,12,37,8.90
2016,01,13,12,38,9.00
2016,01,13,12,39,9.00
2016,01,13,12,41,9.00
2016,01,13,12,42,9.00
2016,01,13,12,43,9.00
2016,01,13,12,44,9.00
2016,01,13,12,46,9.00
2016,01,13,12,47,9.00
2016,01,13,12,48,9.00
2016,01,13,12,49,9.00
2016,01,13,12,51,9.00
2016,01,13,12,52,9.10
2016,01,13,12,53,9.10
2016,01,13,12,54,9.10
2016,01,13,12,55,9.10
2016,01,13,12,56,9.10
2016,01,13,12,57,9.10
2016,01,13,12,58,9.20
2016,01,13,12,59,9.20
2016,01,13,13,00,9.20
2016,01,13,13,01,9.20
2016,01,13,13,02,9.20
2016,01,13,13,03,9.20
2016,01,13,13,04,9.20
2016,01,13,13,06,9.20
2016,01,13,13,07,9.30
2016,01,13,13,08,9.30
2016,01,13,13,09,9.30
2016,01,13,13,10,9.30
2016,01,13,13,11,9.40
2016,01,13,13,12,9.40
2016,01,13,13,13,9.40
2016,01,13,13,14,9.40
2016,01,13,13,15,9.40
2016,01,13,13,16,9.40
2016,01,13,13,17,9.50
2016,01,13,13,18,9.50
2016,01,13,13,19,9.50
2016,01,13,13,20,9.50
2016,01,13,13,21,9.50
2016,01,13,13,22,9.50
2016,01,13,13,23,9.50
2016,01,13,13,24,9.50
2016,01,13,13,25,9.60
2016,01,13,13,26,9.60
2016,01,13,13,27,9.60
2016,01,13,13,28,9.60
2016,01,13,13,29,9.50
2016,01,13,13,30,9.50
2016,01,13,13,31,9.50
2016,01,13,13,32,9.50
2016,01,13,13,33,9.50
2016,01,13,13,34,9.50
2016,01,13,13,35,9.50
2016,01,13,13,36,9.50
2016,01,13,13,37,9.50
2016,01,13,13,38,9.50
2016,01,13,13,39,9.50
2016,01,13,13,40,9.50
2016,01,13,13,41,9.50
2016,01,13,13,42,9.50
2016,01,13,13,43,9.50
2016,01,13,13,44,9.50
2016,01,13,13,45,9.40
2016,01,13,13,46,9.40
2016,01,13,13,47,9.40
2016,01,13,13,48,9.40
2016,01,13,13,49,9.40
2016,01,13,13,50,9.40
2016,01,13,13,51,9.30
2016,01,13,13,52,9.30
2016,01,13,13,53,9.30
2016,01,13,13,54,9.30
2016,01,13,13,55,9.30
2016,01,13,13,56,9.20
2016,01,13,13,57,9.20
2016,01,13,13,58,9.20
2016,01,13,13,59,9.20
2016,01,13,14,00,9.20
2016,01,13,14,01,9.20
2016,01,13,14,02,9.20
2016,01,13,14,03,9.20
2016,01,13,14,04,9.20
2016,01,13,14,05,9.20
2016,01,13,14,06,9.20
2016,01,13,14,08,9.20
2016,01,13,14,09,9.20
2016,01,13,14,11,9.10
2016,01,13,14,12,9.10
2016,01,13,14,13,9.10
2016,01,13,14,14,9.10
2016,01,13,14,16,9.10
2016,01,13,14,17,9.10
2016,01,13,14,18,9.10
2016,01,13,14,19,9.10
2016,01,13,14,21,9.10
2016,01,13,14,22,9.10
2016,01,13,14,23,9.10
2016,01,13,14,24,9.00
2016,01,13,14,26,9.00
2016,01,13,14,27,9.00
2016,01,13,14,28,9.00
2016,01,13,14,29,8.90
2016,01,13,14,31,8.90
2016,01,13,14,32,8.90
2016,01,13,14,33,8.90
2016,01,13,14,34,8.90
2016,01,13,14,36,8.80
2016,01,13,14,37,8.80
2016,01,13,14,38,8.80
2016,01,13,14,39,8.80
2016,01,13,14,41,8.80
2016,01,13,14,42,8.70
2016,01,13,14,43,8.70
2016,01,13,14,44,8.70
2016,01,13,14,46,8.70
2016,01,13,14,47,8.70
2016,01,13,14,48,8.70
2016,01,13,14,49,8.70
2016,01,13,14,51,8.70
2016,01,13,14,52,8.70
2016,01,13,14,53,8.70
2016,01,13,14,54,8.70
2016,01,13,14,56,8.70
2016,01,13,14,57,8.70
2016,01,13,14,58,8.70
2016,01,13,14,59,8.70
2016,01,13,15,01,8.70
2016,01,13,15,02,8.70
2016,01,13,15,03,8.70
2016,01,13,15,04,8.70
2016,01,13,15,06,8.70
2016,01,13,15,07,8.70
2016,01,13,15,08,8.70
2016,01,13,15,09,8.70
2016,01,13,15,10,8.70
2016,01,13,15,11,8.70
2016,01,13,15,12,8.70
2016,01,13,15,13,8.70
2016,01,13,15,14,8.70
2016,01,13,15,15,8.70
2016,01,13,15,16,8.70
2016,01,13,15,17,8.70
2016,01,13,15,18,8.70
2016,01,13,15,19,8.70
2016,01,13,15,20,8.70
2016,01,13,15,21,8.70
2016,01,13,15,22,8.70
2016,01,13,15,23,8.70
2016,01,13,15,24,8.70
2016,01,13,15,25,8.70
2016,01,13,15,26,8.70
2016,01,13,15,27,8.70
2016,01,13,15,28,8.70
2016,01,13,15,29,8.60
2016,01,13,15,30,8.60
2016,01,13,15,31,8.60
2016,01,13,15,32,8.60
2016,01,13,15,33,8.50
2016,01,13,15,34,8.50
2016,01,13,15,35,8.50
2016,01,13,15,36,8.50
2016,01,13,15,37,8.50
2016,01,13,15,38,8.50
2016,01,13,15,39,8.50
2016,01,13,15,40,8.50
2016,01,13,15,41,8.50
2016,01,13,15,42,8.50
2016,01,13,15,43,8.50
2016,01,13,15,44,8.50
2016,01,13,15,45,8.50
2016,01,13,15,46,8.50
2016,01,13,15,47,8.50
2016,01,13,15,48,8.50
2016,01,13,15,49,8.50
2016,01,13,15,50,8.50
2016,01,13,15,51,8.50
2016,01,13,15,52,8.50
2016,01,13,15,53,8.50
2016,01,13,15,54,8.50
2016,01,13,15,55,8.50
2016,01,13,15,56,8.50
2016,01,13,15,57,8.50
2016,01,13,15,58,8.50
2016,01,13,15,59,8.50
2016,01,13,16,00,8.50
2016,01,13,16,02,8.50
2016,01,13,16,03,8.50
2016,01,13,16,04,8.50
2016,01,13,16,06,8.50
2016,01,13,16,07,8.50
2016,01,13,16,08,8.50
2016,01,13,16,09,8.50
2016,01,13,16,11,8.50
2016,01,13,16,12,8.50
2016,01,13,16,13,8.50
2016,01,13,16,14,8.50
2016,01,13,16,16,8.40
2016,01,13,16,17,8.40
2016,01,13,16,18,8.40
2016,01,13,16,19,8.30
2016,01,13,16,21,8.30
2016,01,13,16,22,8.20
2016,01,13,16,23,8.20
2016,01,13,16,24,8.20
2016,01,13,16,26,8.20
2016,01,13,16,27,8.10
2016,01,13,16,28,8.10
2016,01,13,16,29,8.10
2016,01,13,16,31,8.00
2016,01,13,16,32,8.00
2016,01,13,16,33,7.90
2016,01,13,16,34,7.90
2016,01,13,16,36,7.90
2016,01,13,16,37,7.90
2016,01,13,16,38,7.80
2016,01,13,16,39,7.80
2016,01,13,16,41,7.80
2016,01,13,16,42,7.80
2016,01,13,16,43,7.80
2016,01,13,16,44,7.80
2016,01,13,16,46,7.80
2016,01,13,16,47,7.80
2016,01,13,16,48,7.80
2016,01,13,16,49,7.80
2016,01,13,16,51,7.80
2016,01,13,16,52,7.80
2016,01,13,16,53,7.80
2016,01,13,16,54,7.80
2016,01,13,16,55,7.80
2016,01,13,16,56,7.80
2016,01,13,16,57,7.80
2016,01,13,16,58,7.80
2016,01,13,16,59,7.80
2016,01,13,17,00,7.80
2016,01,13,17,01,7.80
2016,01,13,17,02,7.80
2016,01,13,17,03,7.80
2016,01,13,17,04,7.80
2016,01,13,17,06,7.80
2016,01,13,17,07,7.80
2016,01,13,17,08,7.80
2016,01,13,17,09,7.80
2016,01,13,17,10,7.80
2016,01,13,17,11,7.80
2016,01,13,17,12,7.80
2016,01,13,17,13,7.70
2016,01,13,17,14,7.70
2016,01,13,17,15,7.70
2016,01,13,17,16,7.70
2016,01,13,17,17,7.70
2016,01,13,17,18,7.70
2016,01,13,17,19,7.70
2016,01,13,17,20,7.70
2016,01,13,17,21,7.70
2016,01,13,17,22,7.70
2016,01,13,17,23,7.70
2016,01,13,17,24,7.70
2016,01,13,17,25,7.70
2016,01,13,17,26,7.70
2016,01,13,17,27,7.70
2016,01,13,17,28,7.70
2016,01,13,17,29,7.70
2016,01,13,17,30,7.80
2016,01,13,17,31,7.80
2016,01,13,17,32,7.80
2016,01,13,17,33,7.80
2016,01,13,17,34,7.80
2016,01,13,17,35,7.80
2016,01,13,17,36,7.80
2016,01,13,17,37,7.80
2016,01,13,17,38,7.80
2016,01,13,17,39,7.80
2016,01,13,17,40,7.80
2016,01,13,17,41,7.80
2016,01,13,17,42,7.80
2016,01,13,17,43,7.80
2016,01,13,17,44,7.80
2016,01,13,17,45,7.70
2016,01,13,17,46,7.70
2016,01,13,17,47,7.70
2016,01,13,17,48,7.70
2016,01,13,17,49,7.70
2016,01,13,17,50,7.70
2016,01,13,17,51,7.70
2016,01,13,17,52,7.70
2016,01,13,17,53,7.70
2016,01,13,17,54,7.70
2016,01,13,17,55,7.70
2016,01,13,17,56,7.70
2016,01,13,17,57,7.70
2016,01,13,17,58,7.60
2016,01,13,17,59,7.60
2016,01,13,18,00,7.60
2016,01,13,18,01,7.60
2016,01,13,18,02,7.60
2016,01,13,18,03,7.60
2016,01,13,18,04,7.60
2016,01,13,18,06,7.60
2016,01,13,18,07,7.60
2016,01,13,18,08,7.60
2016,01,13,18,09,7.60
2016,01,13,18,11,7.60
2016,01,13,18,12,7.60
2016,01,13,18,13,7.60
2016,01,13,18,14,7.60
2016,01,13,18,16,7.60
2016,01,13,18,17,7.60
2016,01,13,18,18,7.60
2016,01,13,18,19,7.60
2016,01,13,18,21,7.60
2016,01,13,18,22,7.60
2016,01,13,18,23,7.50
2016,01,13,18,24,7.50
2016,01,13,18,26,7.50
2016,01,13,18,27,7.50
2016,01,13,18,28,7.50
2016,01,13,18,29,7.50
2016,01,13,18,31,7.50
2016,01,13,18,32,7.50
2016,01,13,18,33,7.50
2016,01,13,18,34,7.50
2016,01,13,18,36,7.50
2016,01,13,18,37,7.50
2016,01,13,18,38,7.50
2016,01,13,18,39,7.50
2016,01,13,18,41,7.50
2016,01,13,18,42,7.50
2016,01,13,18,43,7.50
2016,01,13,18,44,7.50
2016,01,13,18,46,7.50
2016,01,13,18,47,7.50
2016,01,13,18,48,7.50
2016,01,13,18,49,7.50
2016,01,13,18,51,7.50
2016,01,13,18,52,7.50
2016,01,13,18,53,7.50
2016,01,13,18,54,7.50
2016,01,13,18,55,7.50
2016,01,13,18,56,7.50
2016,01,13,18,57,7.50
2016,01,13,18,58,7.50
2016,01,13,18,59,7.50
2016,01,13,19,00,7.50
2016,01,13,19,01,7.50
2016,01,13,19,02,7.50
2016,01,13,19,03,7.50
2016,01,13,19,04,7.50
2016,01,13,19,05,7.50
2016,01,13,19,06,7.40
2016,01,13,19,07,7.40
2016,01,13,19,08,7.40
2016,01,13,19,09,7.40
2016,01,13,19,10,7.40
2016,01,13,19,11,7.40
2016,01,13,19,12,7.40
2016,01,13,19,13,7.40
2016,01,13,19,14,7.40
2016,01,13,19,15,7.40
2016,01,13,19,16,7.30
2016,01,13,19,17,7.30
2016,01,13,19,18,7.30
2016,01,13,19,19,7.30
2016,01,13,19,20,7.30
2016,01,13,19,21,7.30
2016,01,13,19,22,7.30
2016,01,13,19,23,7.30
2016,01,13,19,24,7.30
2016,01,13,19,25,7.30
2016,01,13,19,26,7.30
2016,01,13,19,27,7.20
2016,01,13,19,28,7.20
2016,01,13,19,29,7.20
2016,01,13,19,30,7.20
2016,01,13,19,31,7.10
2016,01,13,19,32,7.10
2016,01,13,19,33,7.10
2016,01,13,19,34,7.10
2016,01,13,19,35,7.10
2016,01,13,19,36,7.10
2016,01,13,19,37,7.10
2016,01,13,19,38,7.10
2016,01,13,19,39,7.00
2016,01,13,19,40,7.00
2016,01,13,19,41,7.00
2016,01,13,19,42,7.00
2016,01,13,19,43,7.00
2016,01,13,19,44,7.00
2016,01,13,19,45,7.00
2016,01,13,19,46,7.00
2016,01,13,19,47,7.00
2016,01,13,19,48,7.00
2016,01,13,19,49,7.00
2016,01,13,19,50,7.00
2016,01,13,19,52,7.00
2016,01,13,19,53,7.00
2016,01,13,19,54,7.00
2016,01,13,19,56,7.00
2016,01,13,19,57,7.00
2016,01,13,19,58,7.00
2016,01,13,19,59,7.00
2016,01,13,20,01,6.90
2016,01,13,20,02,6.90
2016,01,13,20,03,6.90
2016,01,13,20,04,6.90
2016,01,13,20,06,6.90
2016,01,13,20,07,6.90
2016,01,13,20,08,6.90
2016,01,13,20,09,6.80
2016,01,13,20,11,6.80
2016,01,13,20,12,6.80
2016,01,13,20,13,6.80
2016,01,13,20,14,6.80
2016,01,13,20,16,6.80
2016,01,13,20,17,6.80
2016,01,13,20,18,6.80
2016,01,13,20,19,6.80
2016,01,13,20,21,6.80
2016,01,13,20,22,6.80
2016,01,13,20,23,6.80
2016,01,13,20,24,6.80
2016,01,13,20,26,6.70
2016,01,13,20,27,6.70
2016,01,13,20,28,6.70
2016,01,13,20,29,6.70
2016,01,13,20,31,6.70
2016,01,13,20,32,6.70
2016,01,13,20,33,6.70
2016,01,13,20,34,6.70
2016,01,13,20,36,6.70
2016,01,13,20,37,6.60
2016,01,13,20,38,6.60
2016,01,13,20,39,6.60
2016,01,13,20,41,6.60
2016,01,13,20,42,6.60
2016,01,13,20,43,6.60
2016,01,13,20,44,6.60
2016,01,13,20,46,6.60
2016,01,13,20,47,6.60
2016,01,13,20,48,6.70
2016,01,13,20,49,6.70
2016,01,13,20,50,6.70
2016,01,13,20,51,6.70
2016,01,13,20,52,6.70
2016,01,13,20,53,6.70
2016,01,13,20,54,6.70
2016,01,13,20,55,6.70
2016,01,13,20,56,6.70
2016,01,13,20,57,6.70
2016,01,13,20,58,6.70
2016,01,13,20,59,6.70
2016,01,13,21,00,6.70
2016,01,13,21,01,6.70
2016,01,13,21,02,6.70
2016,01,13,21,03,6.70
2016,01,13,21,04,6.70
2016,01,13,21,05,6.70
2016,01,13,21,06,6.70
2016,01,13,21,07,6.70
2016,01,13,21,08,6.70
2016,01,13,21,09,6.70
2016,01,13,21,10,6.70
2016,01,13,21,11,6.70
2016,01,13,21,12,6.70
2016,01,13,21,13,6.70
2016,01,13,21,14,6.70
2016,01,13,21,15,6.70
2016,01,13,21,16,6.70
2016,01,13,21,17,6.70
2016,01,13,21,18,6.70
2016,01,13,21,19,6.70
2016,01,13,21,20,6.60
2016,01,13,21,21,6.60
2016,01,13,21,22,6.60
2016,01,13,21,23,6.60
2016,01,13,21,24,6.70
2016,01,13,21,25,6.80
2016,01,13,21,27,6.80
2016,01,13,21,28,6.80
2016,01,13,21,29,6.80
2016,01,13,21,31,6.90
2016,01,13,21,32,6.90
2016,01,13,21,33,6.90
2016,01,13,21,34,6.90
2016,01,13,21,36,6.90
2016,01,13,21,37,7.00
2016,01,13,21,38,7.00
2016,01,13,21,39,7.00
2016,01,13,21,41,7.00
2016,01,13,21,42,7.00
2016,01,13,21,43,7.00
2016,01,13,21,44,7.00
2016,01,13,21,46,7.00
2016,01,13,21,47,7.00
2016,01,13,21,48,7.10
2016,01,13,21,49,7.10
2016,01,13,21,51,7.10
2016,01,13,21,52,7.20
2016,01,13,21,53,7.20
2016,01,13,21,54,7.20
2016,01,13,21,56,7.20
2016,01,13,21,57,7.30
2016,01,13,21,58,7.30
2016,01,13,21,59,7.30
2016,01,13,22,01,7.30
2016,01,13,22,02,7.30
2016,01,13,22,03,7.30
2016,01,13,22,04,7.30
2016,01,13,22,06,7.30
2016,01,13,22,07,7.30
2016,01,13,22,08,7.30
2016,01,13,22,09,7.30
2016,01,13,22,10,7.30
2016,01,13,22,11,7.30
2016,01,13,22,12,7.40